Regional Weather Roundup
Issued by NWS Wilmington, NC

Home | Current Version | Previous Version | Text Only | Print | Product List | Glossary On
Versions: 1 2 3 4 5 6 7 8 9 10 11 12 13 14 15 16 17 18 19 20 21 22 23 24 25 26 27 28 29 30 31 32 33 34 35 36 37 38 39 40 41 42 43 44 45 46 47 48 49 50
000
ASUS42 KILM 270513
RWRILM
RWRILM
REGIONAL HOURLY WEATHER ROUNDUP
NATIONAL WEATHER SERVICE WILMINGTON NC
100 AM EDT FRI MAR 27 2015

NOTE: "FAIR" INDICATES FEW OR NO CLOUDS BELOW 12,000 FEET WITH NO
SIGNIFICANT WEATHER AND/OR OBSTRUCTIONS TO VISIBILITY.

...............WFO WILMINGTON COUNTY WARNING AREA...............

......COASTAL NC AND SC COUNTIES......

CITY           SKY/WX    TMP DP  RH WIND       PRES   REMARKS
WILMINGTON     CLOUDY    65  62  90 S9        29.77F
SOUTHPORT      CLOUDY    63  60  92 S7        29.79F
N MYRTLE BEACH CLOUDY    62  60  93 SW16      29.78S
MYRTLE BEACH   CLOUDY    66  57  72 SW12      29.80F

......INLAND NC AND SC COUNTIES.......

CITY           SKY/WX    TMP DP  RH WIND       PRES   REMARKS
LUMBERTON      CLOUDY    67  57  70 SW8       29.74F
ELIZABETHTOWN  CLOUDY    66  56  69 S7        29.75F
WHITEVILLE     CLOUDY    64  56  76 S6        29.76F
FLORENCE       CLOUDY    68  58  70 SW12      29.76S
DARLINGTON     MOCLDY    66  57  72 S14       29.75S

....................REST OF NORTH CAROLINA......................

.........EASTERN NC.........

CITY           SKY/WX    TMP DP  RH WIND       PRES   REMARKS
CAPE HATTERAS  CLOUDY    65  59  81 SW15      29.77F
JACKSONVILLE   CLOUDY    61  54  77 S7        29.78F
MOREHEAD CITY  CLOUDY    64  62  93 SW13      29.79S
KENANSVILLE    CLOUDY    64  55  72 CALM      29.77S
NEW BERN       CLOUDY    65  59  81 S8        29.78F
ELIZABETH CITY MOCLDY    63  56  78 S10G18    29.74F

.........CENTRAL NC.........

CITY           SKY/WX    TMP DP  RH WIND       PRES   REMARKS
RALEIGH DURHAM CLOUDY    66  56  70 SW9       29.71F
ROCKY MOUNT    CLOUDY    66  58  75 S10       29.73S
ROANOKE RAPIDS NOT AVBL
FAYETTEVILLE   CLOUDY    67  58  72 SW10      29.74S
HOFFMAN        CLOUDY    65  59  81 S8        29.75S

.........WESTERN NC.........

CITY           SKY/WX    TMP DP  RH WIND       PRES   REMARKS
CHARLOTTE      CLOUDY    65  55  70 SW12      29.72F
GREENSBORO     MOCLDY    62  54  74 SW7       29.69S
HICKORY        NOT AVBL
BOONE          NOT AVBL
ASHEVILLE      NOT AVBL

.....................REST OF SOUTH CAROLINA.....................

.........EASTERN SC.........

CITY           SKY/WX    TMP DP  RH WIND       PRES   REMARKS
CHARLESTON     LGT RAIN  65  60  84 SW8       29.80F
BEAUFORT MCAS  CLOUDY    66  62  87 S7        29.79F
HILTON HEAD    CLOUDY    64  64 100 S7        29.81F

.........CENTRAL SC.........

CITY           SKY/WX    TMP DP  RH WIND       PRES   REMARKS
COLUMBIA       CLOUDY    68  56  65 SW10      29.74F
ORANGEBURG     CLOUDY    67  58  72 SW12      29.77F
SUMTER SHAW    MOCLDY    65  60  84 S9        29.74F

.........WESTERN SC.........

CITY           SKY/WX    TMP DP  RH WIND       PRES   REMARKS
GREENVILLE     NOT AVBL
ROCK HILL      MOCLDY    63  56  78 SW9       29.73F
ANDERSON       MOCLDY    62  57  83 S9        29.73F
CLEMSON        NOT AVBL
GREENWOOD      MOCLDY    63  57  81 SW10      29.76F


...................COASTAL AND OFFSHORE REPORTS..................

................LOCAL PIERS AND NC RESERVE................


STATION/POSITION TIME  SKY/WX   TEMP    WIND        PRES    VSBY
                                AIR SEA DIR/SP/G
                 (UTC)          (F)     (DEG/KT/KT) (MB)    (MI)
JOHNY MRCER PIER 0400                   200/ 13/ 14 1008.3F
NC RESRV MASNBRO NOT AVBL
OCEAN CREST PIER 0502            61 57  160/  8/ 10 1007.7F
SPRINGMAID  PIER 0400            59 56  190/  8/  9 1008.8F


................COASTAL AND OFFSHORE BUOYS................


STATION/POSITION TIME  SKY/WX   TEMP    WIND        PRES    VSBY
                                AIR SEA DIR/SP/G
                 (UTC)          (F)     (DEG/KT/KT) (MB)    (MI)
DIMNDSHOAL 41025 NOT AVBL
CAPE LOOKOUT     0500            65     200/ 10/ 12 1008.5F
ONSLOW BAY 41036 NOT AVBL
5 WRITEBCH 41038 0400            61 56  200/ 12/ 14 1008.7F
MASONBORO  41110 0419               56                N/A
WVE H/P(F/S)=  5/ 8 WND WVE H/P(F/S)=  5/ 8

WILM HARBR 41108 0411               60                N/A
WVE H/P(F/S)=  4/ 8 WND WVE H/P(F/S)=  5/ 8

27WRITEBCH 41037 0400            64 64  220/ 12/ 14 1011.3F
FRYING PAN 41013 0450            71 66  200/ 14/ 16 1009.4F
WVE H/P(F/S)=  6/ 8 WND WVE H/P(F/S)=  3/ 6 SWL H/P/D(F/S/D)=  5/130/ 8

SUNST NRSH 41024 0400            60     230/ 12/ 14   N/A
CAPRS NRSH 41029 0400            62     240/  6/  8   N/A
EDISTO     41004 0450            70 71  200/ 14/ 16 1009.0R
WVE H/P(F/S)=  5/ 8 WND WVE H/P(F/S)=  3/ 6 SWL H/P/D(F/S/D)=  3/ 8



..........OFFSHORE BUOYS BEYOND 100 NM OFFSHORE...........
.....IN A TRIANGLE---HAT TO BERMUDA TO BAHAMAS TO HAT.....


STATION/POSITION TIME  SKY/WX   TEMP    WIND        PRES    VSBY
                                AIR SEA DIR/SP/G
                 (UTC)          (F)     (DEG/KT/KT) (MB)    (MI)
150E HAT   41001 NOT AVBL
W BERMUDA  41048 0450            69 69  170/ 21/ 25 1019.0F
WVE H/P(F/S)=  6/ 7 WND WVE H/P(F/S)=  7/ 7 SWL H/P/D(F/S/D)=  2/130/ 9

ATLANTIC S 41049 0450            71 74  120/ 17/ 21 1023.6F
WVE H/P(F/S)=  6/ 7 WND WVE H/P(F/S)=  5/ 7 SWL H/P/D(F/S/D)=  3/100/12

E BAHAMAS  41046 0450            77 78  130/ 16/ 17 1019.2F
WVE H/P(F/S)=  8/ 9 WND WVE H/P(F/S)=  3/ 6 SWL H/P/D(F/S/D)=  7/ 40/ 9

NE BAHAMAS 41047 0450            74 74  140/ 23/ 27 1017.3F
WVE H/P(F/S)= 10/ 8 WND WVE H/P(F/S)=  8/ 8 SWL H/P/D(F/S/D)=  5/ 70/13

120E CANVRL41010 0420            76 76  200/ 21/ 25 1012.3F

END


USA.gov is the U.S. government's official web portal to all federal, state and local government web resources and services.